Rochester, NH

10:46 AM EDT on April 28, 2017 (GMT -0400)
Skyhaven

Weather History for KDAW - March, 2013

Change the Weather History Date:

Saturday, March 16, 2013

  Actual Average (KPSM) Record (KPSM)
Temperature  
Mean Temperature 28 °F -  
Max Temperature 34 °F 38 °F 55 °F (1989)
Min Temperature 24 °F 24 °F 4 °F (1993)
Degree Days  
Heating Degree Days 36    
Moisture  
Dew Point 13 °F    
Average Humidity 52    
Maximum Humidity 86    
Minimum Humidity 34    
Precipitation  
Precipitation 0.00 in - - ()
Sea Level Pressure  
Sea Level Pressure 29.77 in    
Wind  
Wind Speed 7 mph (NW)    
Max Wind Speed 13 mph    
Max Gust Speed 18 mph    
Visibility 10 miles    
Events      
Averages and records for this station are not official NWS values.
T = Trace of Precipitation, MM = Missing Value Source: NWS Daily Summary

Daily Weather History Graph

Daily Weather History Graph

Search for Another Location

Airport or City:

Trip Planner

Search our weather history database for the weather conditions in past years. The results will help you decide how hot, cold, wet, or windy it might be!

Date:

Astronomy

Mar. 16, 2013 Rise Set
Actual Time 6:53 AM EDT 6:51 PM EDT
Civil Twilight 6:25 AM EDT 7:19 PM EDT
Nautical Twilight 5:52 AM EDT 7:53 PM EDT
Astronomical Twilight 5:18 AM EDT 8:27 PM EDT
Moon 9:12 AM EDT (3/16) No Moon Set
Length of Visible Light 12h 54m
Length of Day
11h 57m
Waxing Crescent, 23% of the Moon is Illuminated
Mar 16
Waxing Crescent
Mar 19
First Quarter
Mar 27
Full
Apr 3
Last Quarter
Apr 10
New

Hourly Weather History & Observations

Time (EDT) Temp. Windchill Dew Point Humidity Pressure Visibility Wind Dir Wind Speed Gust Speed Precip Events Conditions
12:03 AM 28.4 °F 19.7 °F 24.8 °F 86% 29.63 in 9.0 mi NW 9.2 mph - 0.00 in   Mostly Cloudy
12:51 AM 28.9 °F 25.2 °F 21.0 °F 72% 29.66 in 10.0 mi Variable 3.5 mph - 0.00 in   Scattered Clouds
1:51 AM 28.0 °F 17.5 °F 17.1 °F 63% 29.67 in 10.0 mi WNW 12.7 mph - N/A   Clear
2:51 AM 27.0 °F 18.7 °F 18.0 °F 69% 29.69 in 10.0 mi WNW 8.1 mph - N/A   Clear
4:51 AM 24.1 °F - 17.1 °F 75% 29.73 in 10.0 mi Calm Calm - N/A   Clear
5:51 AM 25.0 °F 17.1 °F 15.1 °F 66% 29.75 in 10.0 mi Variable 6.9 mph - N/A   Clear
6:51 AM 24.1 °F 17.0 °F 14.0 °F 65% 29.78 in 10.0 mi WNW 5.8 mph - N/A   Clear
7:51 AM 24.1 °F 16.0 °F 14.0 °F 65% 29.79 in 10.0 mi WNW 6.9 mph - N/A   Clear
8:51 AM 27.0 °F 19.5 °F 14.0 °F 58% 29.81 in 10.0 mi WNW 6.9 mph - N/A   Clear
9:51 AM 28.9 °F 19.8 °F 15.1 °F 56% 29.81 in 10.0 mi NW 10.4 mph - N/A   Clear
10:51 AM 30.9 °F 26.2 °F 12.9 °F 47% 29.80 in 10.0 mi Variable 4.6 mph - N/A   Clear
11:51 AM 32.0 °F 27.5 °F 12.0 °F 44% 29.79 in 10.0 mi Variable 4.6 mph - N/A   Clear
1:51 PM 33.1 °F 26.9 °F 8.1 °F 35% 29.78 in 10.0 mi WNW 6.9 mph - N/A   Clear
2:51 PM 33.1 °F 24.9 °F 9.0 °F 37% 29.77 in 10.0 mi WNW 10.4 mph - N/A   Mostly Cloudy
3:51 PM 32.0 °F 23.0 °F 9.0 °F 38% 29.78 in 10.0 mi WNW 11.5 mph 18.4 mph N/A   Overcast
4:51 PM 33.1 °F 26.9 °F 8.1 °F 35% 29.77 in 10.0 mi NW 6.9 mph - N/A   Overcast
5:51 PM 32.0 °F 24.8 °F 6.1 °F 34% 29.77 in 10.0 mi WNW 8.1 mph - N/A   Clear
6:51 PM 30.9 °F 24.3 °F 6.1 °F 35% 29.78 in 10.0 mi WNW 6.9 mph - N/A   Mostly Cloudy
7:51 PM 30.0 °F 26.5 °F 10.0 °F 43% 29.80 in 10.0 mi NNW 3.5 mph - N/A   Scattered Clouds
8:51 PM 30.0 °F 26.5 °F 9.0 °F 41% 29.82 in 10.0 mi NNW 3.5 mph - N/A   Partly Cloudy
9:51 PM 30.0 °F 24.1 °F 10.0 °F 43% 29.84 in 10.0 mi NNW 5.8 mph - N/A   Overcast
10:51 PM 30.0 °F 26.5 °F 9.0 °F 41% 29.86 in 10.0 mi NW 3.5 mph - N/A   Overcast
11:51 PM 28.0 °F 22.8 °F 9.0 °F 45% 29.88 in 10.0 mi NNW 4.6 mph - N/A   Overcast